Powrót do katalogu

FENGYUN 1C DEB

LostPO
NORAD 35186·DEBRIS·🇨🇳 China

Wystrzelony May 10, 1999 z Taiyuan Satellite Launch Center

Loading…

Następne Przeloty (najbliższe 24 godziny)

TLE

NieaktualneSource: Space-Track

Epoka: Oct 1, 2022, 13:23 UTC

1 35186U 99025DNS 22274.55789216  .00001447  00000-0  55584-3 0  9994
2 35186  99.5773 169.7584 0060901 238.9388 120.5805 14.31264068768504

Śledź FENGYUN 1C DEB w czasie rzeczywistym z AllMySat

Download on the App Store